Buffalo, WY

1:52 PM MDT on June 22, 2017 (GMT -0600)
Johnson County

Weather History for KBYG - July, 2012

Change the Weather History Date:

Tuesday, July 10, 2012

  Actual Average Record
Temperature  
Mean Temperature 78 °F 70 °F  
Max Temperature 93 °F 84 °F 93 °F (2012)
Min Temperature 63 °F 56 °F 48 °F (2009)
Degree Days  
Heating Degree Days 0 1  
Month to date heating degree days 13  
Since 1 June heating degree days 176  
Since 1 July heating degree days 13  
Cooling Degree Days 13 6  
Month to date cooling degree days 51  
Year to date cooling degree days 109  
Since 1 June cooling degree days 102  
Growing Degree Days 28 (Base 50)    
Moisture  
Dew Point 42 °F    
Average Humidity 29    
Maximum Humidity 50    
Minimum Humidity 15    
Precipitation  
Precipitation 0.00 in 0.04 in 0.21 in (2001)
Month to date precipitation 0.51  
Year to date precipitation 8.31  
Sea Level Pressure  
Sea Level Pressure 30.00 in    
Wind  
Wind Speed 7 mph (South)    
Max Wind Speed 31 mph    
Max Gust Speed 40 mph    
Visibility 10 miles    
Events Rain , Thunderstorm    
T = Trace of Precipitation, MM = Missing Value Source: NWS Daily Summary

Daily Weather History Graph

Daily Weather History Graph

Search for Another Location

Airport or City:

Trip Planner

Search our weather history database for the weather conditions in past years. The results will help you decide how hot, cold, wet, or windy it might be!

Date:

Astronomy

Jul. 10, 2012 Rise Set
Actual Time 5:32 AM MDT 8:51 PM MDT
Civil Twilight 4:57 AM MDT 9:27 PM MDT
Nautical Twilight 4:10 AM MDT 10:13 PM MDT
Astronomical Twilight 3:12 AM MDT 11:10 PM MDT
Moon No Moon Rise 1:21 PM MDT (7/10)
Length of Visible Light 16h 29m
Length of Day
15h 18m
Waning Gibbous, 53% of the Moon is Illuminated
Jul 10
Waning Gibbous
Jul 10
Last Quarter
Jul 18
New
Jul 26
First Quarter
Aug 1
Full

Hourly Weather History & Observations

Time (MDT) Temp. Dew Point Humidity Pressure Visibility Wind Dir Wind Speed Gust Speed Precip Events Conditions
12:53 AM 68.0 °F 45.0 °F 43% 30.05 in 10.0 mi South 9.2 mph - N/A   Clear
1:53 AM 68.0 °F 45.0 °F 43% 30.04 in 10.0 mi SE 5.8 mph - N/A   Clear
2:53 AM 68.0 °F 45.0 °F 43% 30.04 in 10.0 mi Calm Calm - N/A   Clear
3:53 AM 64.9 °F 43.0 °F 45% 30.04 in 10.0 mi South 4.6 mph - N/A   Clear
4:53 AM 63.0 °F 44.1 °F 50% 30.04 in 10.0 mi SW 3.5 mph - N/A   Clear
5:53 AM 63.0 °F 42.1 °F 46% 30.04 in 10.0 mi Calm Calm - N/A   Clear
6:53 AM 71.1 °F 42.1 °F 35% 30.02 in 10.0 mi SSW 4.6 mph - N/A   Clear
7:53 AM 73.0 °F 46.9 °F 39% 30.03 in 10.0 mi SE 4.6 mph - N/A   Clear
8:53 AM 77.0 °F 50.0 °F 39% 30.02 in 10.0 mi SE 5.8 mph - N/A   Clear
9:53 AM 82.9 °F 46.9 °F 28% 30.01 in 10.0 mi SE 10.4 mph - N/A   Clear
10:53 AM 88.0 °F 44.1 °F 22% 29.99 in 10.0 mi SE 10.4 mph - N/A   Clear
11:53 AM 89.1 °F 37.0 °F 16% 29.99 in 10.0 mi Variable 3.5 mph - N/A   Clear
12:53 PM 91.9 °F 37.9 °F 15% 29.97 in 10.0 mi East 9.2 mph - N/A   Clear
1:53 PM 93.0 °F 37.9 °F 15% 29.95 in 10.0 mi Variable 5.8 mph - N/A Thunderstorm Clear
2:10 PM 89.6 °F 37.4 °F 16% 30.17 in 10.0 mi Variable 3.5 mph - N/A   Clear
2:53 PM 84.0 °F 42.1 °F 23% 29.99 in 10.0 mi WSW 19.6 mph 26.5 mph N/A   Mostly Cloudy
3:30 PM 82.4 °F 39.2 °F 21% 30.16 in 10.0 mi SSW 10.4 mph 29.9 mph 0.00 in Rain Light Rain
3:53 PM 90.0 °F 42.1 °F 19% 29.96 in 10.0 mi South 10.4 mph - 0.00 in   Clear
4:53 PM 90.0 °F 39.9 °F 17% 29.94 in 10.0 mi SW 8.1 mph - N/A   Clear
5:53 PM 87.1 °F 37.9 °F 18% 29.93 in 10.0 mi Calm Calm - N/A   Clear
6:53 PM 82.0 °F 39.9 °F 22% 29.93 in 10.0 mi West 31.1 mph 40.3 mph N/A   Clear
7:53 PM 79.0 °F 41.0 °F 26% 29.94 in 10.0 mi WSW 16.1 mph 26.5 mph N/A   Clear
8:53 PM 77.0 °F 43.0 °F 30% 29.94 in 10.0 mi SSW 21.9 mph - N/A   Clear
9:53 PM 78.1 °F 41.0 °F 27% 29.91 in 10.0 mi SW 11.5 mph - N/A   Clear
10:53 PM 75.0 °F 41.0 °F 29% 29.91 in 10.0 mi West 8.1 mph - N/A   Clear
11:53 PM 75.9 °F 37.9 °F 25% 29.90 in 10.0 mi Calm Calm - N/A   Clear